| time (UTC) | temp F | wind direction | speed knots | gust knots | rain 1hr in | rain 24hr in | rain mn in | humidity % | barometer mb |
| 20260506004534 | 52 | 171 | 0.0 | 7.0 | 0.00 | 0.00 | 0.00 | 74 | 1009.3 |
| 20260506003031 | 52 | 151 | 0.9 | 8.7 | 0.00 | 0.00 | 0.00 | 73 | 1009.2 |
| 20260506001528 | 53 | 172 | 0.0 | 7.8 | 0.00 | 0.00 | 0.00 | 72 | 1009.3 |
| 20260506000026 | 53 | 173 | 0.0 | 8.7 | 0.00 | 0.00 | 0.00 | 71 | 1009.0 |
| 20260505234526 | 53 | 154 | 0.9 | 5.2 | 0.00 | 0.00 | 0.00 | 70 | 1009.0 |
| 20260505233024 | 53 | 172 | 1.7 | 7.0 | 0.00 | 0.00 | 0.00 | 70 | 1008.8 |
| 20260505231535 | 53 | 171 | 0.0 | 4.3 | 0.00 | 0.00 | 0.00 | 70 | 1008.7 |
| 20260505230024 | 54 | 160 | 0.9 | 5.2 | 0.00 | 0.00 | 0.00 | 70 | 1008.4 |
| 20260505224517 | 54 | 153 | 0.9 | 7.8 | 0.00 | 0.00 | 0.00 | 69 | 1008.0 |
| 20260505223014 | 55 | 171 | 0.9 | 4.3 | 0.00 | 0.00 | 0.00 | 68 | 1007.9 |
| 20260505221520 | 54 | 167 | 0.0 | 6.1 | 0.00 | 0.00 | 0.00 | 68 | 1007.5 |
| 20260505220023 | 54 | 148 | 0.9 | 11.3 | 0.00 | 0.00 | 0.00 | 70 | 1007.3 |
| 20260505214518 | 54 | 171 | 1.7 | 11.3 | 0.00 | 0.00 | 0.00 | 71 | 1007.6 |
| 20260505213027 | 55 | 146 | 0.0 | 5.2 | 0.00 | 0.00 | 0.00 | 72 | 1007.5 |
| 20260505211515 | 55 | 167 | 0.9 | 7.0 | 0.00 | 0.00 | 0.00 | 72 | 1007.5 |
| 20260505210015 | 55 | 90 | 0.9 | 6.1 | 0.00 | 0.00 | 0.00 | 72 | 1006.9 |
| 20260505204513 | 55 | 145 | 0.0 | 9.6 | 0.00 | 0.00 | 0.00 | 75 | 1006.9 |
| 20260505203014 | 55 | 172 | 0.9 | 6.1 | 0.00 | 0.00 | 0.00 | 75 | 1007.3 |
| 20260505201512 | 55 | 137 | 0.9 | 9.6 | 0.00 | 0.00 | 0.00 | 75 | 1006.9 |
| 20260505200010 | 56 | 169 | 0.0 | 7.8 | 0.00 | 0.00 | 0.00 | 74 | 1006.8 |
| 20260505194505 | 56 | 170 | 0.9 | 5.2 | 0.00 | 0.00 | 0.00 | 76 | 1006.7 |
| 20260505193004 | 56 | 96 | 1.7 | 6.1 | 0.00 | 0.00 | 0.00 | 76 | 1006.7 |
| 20260505191501 | 56 | 152 | 1.7 | 9.6 | 0.00 | 0.00 | 0.00 | 76 | 1006.4 |
| 20260505190059 | 56 | 153 | 0.9 | 7.0 | 0.00 | 0.00 | 0.00 | 78 | 1006.3 |
| 20260505184558 | 56 | 162 | 0.9 | 7.0 | 0.00 | 0.00 | 0.00 | 78 | 1005.9 |
| 20260505183058 | 56 | 149 | 0.0 | 7.0 | 0.00 | 0.00 | 0.00 | 80 | 1006.1 |
| 20260505181555 | 56 | 169 | 0.0 | 6.1 | 0.00 | 0.00 | 0.00 | 80 | 1006.0 |
| 20260505180059 | 56 | 164 | 0.0 | 11.3 | 0.00 | 0.00 | 0.00 | 81 | 1005.9 |
| 20260505174550 | 57 | 149 | 0.0 | 5.2 | 0.00 | 0.00 | 0.00 | 82 | 1005.2 |
| 20260505173055 | 57 | 172 | 0.0 | 7.0 | 0.00 | 0.00 | 0.00 | 82 | 1005.2 |
| 20260505171548 | 57 | 169 | 0.0 | 6.1 | 0.00 | 0.00 | 0.00 | 82 | 1005.0 |
| 20260505164544 | 58 | 91 | 1.7 | 8.7 | 0.00 | 0.00 | 0.00 | 82 | 1004.5 |
| 20260505163042 | 58 | 172 | 0.0 | 13.0 | 0.00 | 0.00 | 0.00 | 82 | 1004.2 |
| 20260505161536 | 59 | 172 | 1.7 | 9.6 | 0.00 | 0.00 | 0.00 | 81 | 1004.0 |
| 20260505153024 | 65 | 154 | 0.9 | 7.0 | 0.00 | 0.00 | 0.00 | 77 | 1003.2 |
| 20260505151521 | 69 | 172 | 0.9 | 5.2 | 0.00 | 0.00 | 0.00 | 76 | 1002.7 |
| 20260505124511 | 67 | 98 | 2.6 | 7.8 | 0.00 | 0.00 | 0.00 | 80 | 1002.2 |
| 20260505123005 | 67 | 96 | 0.0 | 5.2 | 0.00 | 0.00 | 0.00 | 80 | 1002.1 |
| 20260505121508 | 67 | 91 | 0.9 | 7.0 | 0.00 | 0.00 | 0.00 | 80 | 1001.8 |
| 20260505120004 | 67 | 101 | 0.0 | 1.7 | 0.00 | 0.00 | 0.00 | 80 | 1001.9 |
| 20260505114504 | 67 | 91 | 0.9 | 4.3 | 0.00 | 0.00 | 0.00 | 80 | 1001.9 |
| 20260505113005 | 67 | 175 | 0.0 | 3.5 | 0.00 | 0.00 | 0.00 | 80 | 1001.6 |
| 20260505111601 | 67 | 172 | 0.9 | 3.5 | 0.00 | 0.00 | 0.00 | 80 | 1001.5 |
| 20260505101559 | 67 | 95 | 0.0 | 3.5 | 0.00 | 0.00 | 0.00 | 80 | 1000.7 |
| 20260505100100 | 67 | 91 | 0.9 | 4.3 | 0.00 | 0.00 | 0.00 | 79 | 1000.6 |
| 20260505094555 | 67 | 104 | 1.7 | 6.1 | 0.00 | 0.00 | 0.00 | 78 | 1000.4 |
| 20260505093053 | 68 | 93 | 0.0 | 7.0 | 0.00 | 0.00 | 0.00 | 77 | 1000.5 |
| 20260505091550 | 69 | 91 | 1.7 | 6.1 | 0.00 | 0.00 | 0.00 | 76 | 1000.4 |
| 20260505090059 | 69 | 91 | 0.9 | 5.2 | 0.00 | 0.00 | 0.00 | 75 | 1000.5 |
| 20260505084551 | 69 | 104 | 1.7 | 6.1 | 0.00 | 0.00 | 0.00 | 75 | 1000.6 |
| 20260505083055 | 69 | 101 | 1.7 | 4.3 | 0.00 | 0.00 | 0.00 | 75 | 1000.5 |
| 20260505081547 | 69 | 96 | 0.9 | 3.5 | 0.00 | 0.00 | 0.00 | 74 | 1000.8 |
| 20260505080046 | 69 | 97 | 0.9 | 5.2 | 0.00 | 0.00 | 0.00 | 74 | 1000.8 |
| 20260505074542 | 69 | 98 | 0.0 | 4.3 | 0.00 | 0.00 | 0.00 | 73 | 1001.0 |
| 20260505073041 | 69 | 96 | 0.0 | 1.7 | 0.00 | 0.00 | 0.00 | 73 | 1001.2 |
| 20260505071540 | 70 | 171 | 0.0 | 2.6 | 0.00 | 0.00 | 0.00 | 73 | 1001.5 |
| 20260505070044 | 70 | 173 | 0.0 | 0.0 | 0.00 | 0.00 | 0.00 | 73 | 1001.6 |
| 20260505064538 | 69 | 176 | 0.0 | 0.0 | 0.00 | 0.00 | 0.00 | 73 | 1001.8 |
| 20260505063040 | 69 | 175 | 0.0 | 0.0 | 0.00 | 0.00 | 0.00 | 74 | 1001.9 |
| 20260505061540 | 70 | 176 | 0.0 | 2.6 | 0.00 | 0.00 | 0.00 | 72 | 1001.6 |
| 20260505060036 | 70 | 96 | 0.0 | 3.5 | 0.00 | 0.00 | 0.00 | 72 | 1000.9 |
| 20260505054538 | 70 | 108 | 0.9 | 5.2 | 0.00 | 0.00 | 0.00 | 71 | 1001.0 |
| 20260505053040 | 70 | 103 | 0.0 | 5.2 | 0.00 | 0.00 | 0.00 | 70 | 1001.1 |
| 20260505051531 | 70 | 95 | 0.9 | 4.3 | 0.00 | 0.00 | 0.00 | 70 | 1001.5 |
| 20260505041524 | 71 | 95 | 2.6 | 11.3 | 0.00 | 0.00 | 0.00 | 66 | 1001.1 |
| 20260505040022 | 71 | 97 | 1.7 | 7.8 | 0.00 | 0.00 | 0.00 | 66 | 1001.4 |
| 20260505034521 | 70 | 98 | 2.6 | 5.2 | 0.00 | 0.00 | 0.00 | 66 | 1001.6 |
| 20260505033021 | 71 | 134 | 1.7 | 7.8 | 0.00 | 0.00 | 0.00 | 65 | 1001.8 |
| 20260505031519 | 71 | 91 | 2.6 | 7.8 | 0.00 | 0.00 | 0.00 | 64 | 1002.1 |
| 20260505030025 | 72 | 102 | 3.5 | 9.6 | 0.00 | 0.00 | 0.00 | 62 | 1002.1 |
| 20260505024517 | 72 | 94 | 1.7 | 7.0 | 0.00 | 0.00 | 0.00 | 62 | 1002.3 |
| 20260505023017 | 72 | 142 | 0.9 | 5.2 | 0.00 | 0.00 | 0.00 | 62 | 1002.3 |
| 20260505021516 | 72 | 101 | 1.7 | 7.0 | 0.00 | 0.00 | 0.00 | 61 | 1002.3 |
| 20260505020015 | 73 | 95 | 2.6 | 7.8 | 0.00 | 0.00 | 0.00 | 60 | 1002.3 |
| 20260505014516 | 73 | 93 | 3.5 | 8.7 | 0.00 | 0.00 | 0.00 | 60 | 1002.1 |
| 20260505013014 | 74 | 104 | 2.6 | 7.0 | 0.00 | 0.00 | 0.00 | 60 | 1002.2 |
| 20260505011518 | 74 | 95 | 0.9 | 4.3 | 0.00 | 0.00 | 0.00 | 59 | 1002.1 |
| 20260505010012 | 75 | 97 | 1.7 | 5.2 | 0.00 | 0.00 | 0.00 | 59 | 1002.0 |